Flag for Mauritania Weather past 2 weeks in Nouakchott, Mauritania

Now
73 °F

Clear.


Feels Like: 72 °F
Forecast: 79 / 89 °F
Wind: 3 mph from Northwest

Location: Nouakchott Airport

Current Time: Aug 3, 2015 at 6:58:52 AM

Latest Report: Aug 3, 2015 at 6:30 AM


Visibility: 5 mi

Pressure: 29.89 "Hg

Humidity: 89%

Dew point: 70 °F

Location of NouakchottLocation

Historic Weather in Nouakchott — Graph

°F

Nouakchott temperature yesterday

Maximum temperature yesterday: 81 °F (at 12:00 AM)
Minimum temperature yesterday: 68 °F (at 10:30 AM)
Average temperature yesterday: 75 °F

Past Weeks' High & Low Weather Summary

 TemperatureHumidityPressure
High104 °F (Jul 19, 1:30 PM)94% (Aug 2, 7:30 AM)29.95 "Hg (Aug 2, 7:30 AM)
Low68 °F (Aug 2, 10:30 AM)12% (Jul 19, 1:30 PM)29.77 "Hg (Jul 19, 5:30 PM)
Average80 °F72%29.86 "Hg
* Reported Jul 19 5:00 AM — Aug 3 5:30 AM, Nouakchott, Weather by CustomWeather, © 2015

Note: Actual official high and low records may vary slightly from our data, if they occured in-between our weather recording intervals... More about our weather records

Advertising

Nouakchott weather history for previous 24 hours

 ConditionsComfort  
Time TempWeatherWind HumidityBarometerVisibility
5:30 AM
Mon, Aug 3
73 °FClear.3 mph89%29.89 "Hg5 mi
5:00 AM73 °FClear.5 mph89%29.89 "Hg5 mi
4:30 AM73 °FClear.5 mph89%29.89 "Hg5 mi
3:30 AM73 °FPassing clouds.5 mph94%29.89 "Hg5 mi
3:00 AM73 °FPassing clouds.5 mph94%29.89 "Hg5 mi
2:30 AM75 °FPassing clouds.5 mph89%29.89 "Hg5 mi
2:00 AM75 °FPassing clouds.6 mph89%29.89 "Hg5 mi
1:30 AM75 °FMild.6 mph89%29.92 "HgN/A
1:00 AM77 °FPassing clouds.7 mph83%29.92 "Hg5 mi
12:30 AM77 °FPassing clouds.7 mph83%29.92 "Hg5 mi
12:00 AM77 °FPassing clouds.6 mph83%29.92 "Hg5 mi
11:30 PM
Sun, Aug 2
77 °FPassing clouds.7 mph83%29.92 "Hg5 mi
11:00 PM77 °FPassing clouds.6 mph83%29.92 "Hg5 mi
10:00 PM77 °FPassing clouds.5 mph83%29.92 "Hg5 mi
9:30 PM77 °FPassing clouds.5 mph83%29.92 "Hg5 mi
9:00 PM79 °FPassing clouds.6 mph84%29.89 "Hg5 mi
8:30 PM79 °FPassing clouds.3 mph84%29.89 "Hg5 mi
8:00 PM79 °FPassing clouds.5 mph79%29.89 "Hg5 mi
7:30 PM79 °FPassing clouds.5 mph79%29.89 "Hg5 mi
7:00 PM79 °FPassing clouds.7 mph79%29.89 "HgN/A
6:30 PM79 °FPassing clouds.7 mph79%29.86 "HgN/A
6:00 PM81 °FPassing clouds.7 mph74%29.86 "HgN/A
5:30 PM81 °FPassing clouds.6 mph79%29.86 "HgN/A
5:00 PM81 °FPassing clouds.7 mph74%29.86 "HgN/A
4:30 PM81 °FClear.7 mph74%29.86 "Hg4 mi
4:00 PM81 °FClear.6 mph74%29.86 "Hg4 mi
3:30 PM79 °FPassing clouds.5 mph74%29.86 "Hg4 mi
3:00 PM77 °FPassing clouds.7 mph79%29.86 "Hg4 mi
2:30 PM75 °FPassing clouds.7 mph78%29.86 "Hg4 mi
2:00 PM75 °FPassing clouds.7 mph78%29.86 "Hg4 mi
1:30 PM75 °FPassing clouds.7 mph78%29.89 "Hg4 mi
1:00 PM77 °FPartly sunny.6 mph79%29.89 "Hg4 mi
12:30 PM77 °FPartly sunny.7 mph83%29.89 "Hg4 mi
12:00 PM73 °FPartly sunny.9 mph89%29.89 "Hg4 mi
11:30 AM73 °FLight rain. Overcast.8 mph89%29.92 "Hg3 mi
11:00 AM70 °FLight rain. Overcast.9 mph94%29.92 "Hg2 mi
10:30 AM68 °FLight rain. Overcast.8 mph94%29.92 "Hg2 mi
10:03 AM70 °FRain. Overcast.2 mph94%29.95 "Hg1 mi
9:30 AM72 °FPartly sunny.3 mph88%29.95 "Hg4 mi
9:00 AM70 °FLight rain. Partly sunny.2 mph94%29.95 "Hg4 mi
8:30 AM70 °FRain. Scattered clouds.2 mph94%29.95 "Hg2 mi
8:00 AM70 °FLight rain. Scattered clouds.3 mph94%29.92 "Hg2 mi
7:30 AM70 °FRain. Scattered clouds.6 mph94%29.92 "Hg1 mi
7:00 AM72 °FScattered clouds.1 mph88%29.92 "Hg4 mi
6:30 AM70 °FPassing clouds.6 mph88%29.86 "Hg4 mi
6:00 AM70 °FPassing clouds.2 mph88%29.86 "Hg4 mi
Weather by CustomWeather, © 2015

See weather overviewHow to use our weather pages